Track STARLINK-3736 now! 10-day predictions STARLINK-3736 is classified as:
1 52113U 22029AB 22184.58334491 -.00051109 00000-0 -32136-2 0 9996 2 52113 53.2157 357.5218 0001679 54.7996 196.9060 15.08868130 1306